Wichita, KS

7:10 AM CDT on April 26, 2017 (GMT -0500)
Wichita Eisenhower National Airport

Weather History for KICT - March, 2014

Change the Weather History Date:

Thursday, March 20, 2014

  Actual Average Record
Temperature  
Mean Temperature 52 °F 48 °F  
Max Temperature 73 °F 59 °F 89 °F (2017)
Min Temperature 30 °F 36 °F 13 °F (1965)
Degree Days  
Heating Degree Days 13 17  
Month to date heating degree days 495 405  
Since 1 July heating degree days 4414 4045  
Cooling Degree Days 0 0  
Month to date cooling degree days 0 0  
Year to date cooling degree days 0 0  
Growing Degree Days 3 (Base 50)    
Moisture  
Dew Point 27 °F    
Average Humidity 46    
Maximum Humidity 75    
Minimum Humidity 16    
Precipitation  
Precipitation 0.00 in 0.09 in 2.21 in (2007)
Month to date precipitation 0.45 1.63  
Year to date precipitation 1.44 3.64  
Snow  
Snow 0.00 in 0.00 in 4.10 in (1961)
Month to date snowfall 3.2 1.6  
Since 1 July snowfall 22.7 14.0  
Snow Depth 0.00 in    
Sea Level Pressure  
Sea Level Pressure 29.99 in    
Wind  
Wind Speed 13 mph (SSW)    
Max Wind Speed 28 mph    
Max Gust Speed 35 mph    
Visibility 10 miles    
Events      
T = Trace of Precipitation, MM = Missing Value Source: NWS Daily Summary

Daily Weather History Graph

Daily Weather History Graph

Search for Another Location

Airport or City:

Trip Planner

Search our weather history database for the weather conditions in past years. The results will help you decide how hot, cold, wet, or windy it might be!

Date:

Astronomy

Mar. 20, 2014 Rise Set
Actual Time 7:33 AM CDT 7:41 PM CDT
Civil Twilight 7:07 AM CDT 8:07 PM CDT
Nautical Twilight 6:36 AM CDT 8:38 PM CDT
Astronomical Twilight 6:05 AM CDT 9:09 PM CDT
Moon 11:57 PM CDT (3/20) 9:44 AM CDT (3/20)
Length of Visible Light 13h 00m
Length of Day
12h 08m
Waning Gibbous, 84% of the Moon is Illuminated
Mar 20
Waning Gibbous
Mar 23
Last Quarter
Mar 30
New
Apr 7
First Quarter
Apr 15
Full

Hourly Weather History & Observations

Time (CDT) Temp. Windchill Dew Point Humidity Pressure Visibility Wind Dir Wind Speed Gust Speed Precip Events Conditions
12:53 AM 35.1 °F 28.6 °F 24.1 °F 64% 30.14 in 10.0 mi South 8.1 mph - N/A   Clear
1:53 AM 36.0 °F 31.1 °F 25.0 °F 64% 30.13 in 10.0 mi South 5.8 mph - N/A   Clear
2:53 AM 36.0 °F 29.6 °F 26.1 °F 67% 30.12 in 10.0 mi SSW 8.1 mph - N/A   Clear
3:53 AM 39.0 °F 32.3 °F 27.0 °F 62% 30.09 in 10.0 mi SSW 10.4 mph - N/A   Clear
4:53 AM 35.1 °F 28.6 °F 26.1 °F 70% 30.09 in 10.0 mi SSW 8.1 mph - N/A   Clear
5:53 AM 34.0 °F 26.6 °F 26.1 °F 73% 30.09 in 10.0 mi South 9.2 mph - N/A   Clear
6:53 AM 34.0 °F 28.8 °F 25.0 °F 70% 30.09 in 10.0 mi South 5.8 mph - N/A   Clear
7:53 AM 33.1 °F 26.1 °F 26.1 °F 75% 30.09 in 10.0 mi SSE 8.1 mph - N/A   Clear
8:53 AM 39.9 °F 33.9 °F 28.9 °F 65% 30.08 in 10.0 mi South 9.2 mph - N/A   Clear
9:53 AM 50.0 °F - 28.9 °F 44% 30.07 in 10.0 mi SSW 15.0 mph - N/A   Clear
10:53 AM 57.0 °F - 28.9 °F 34% 30.04 in 10.0 mi SSW 21.9 mph 27.6 mph N/A   Clear
11:53 AM 61.0 °F - 28.9 °F 30% 30.03 in 10.0 mi SSW 27.6 mph 34.5 mph N/A   Clear
12:53 PM 66.9 °F - 28.0 °F 23% 29.99 in 10.0 mi SW 25.3 mph 32.2 mph N/A   Partly Cloudy
1:53 PM 70.0 °F - 26.1 °F 19% 29.96 in 10.0 mi SW 21.9 mph - N/A   Partly Cloudy
2:53 PM 71.1 °F - 26.1 °F 19% 29.92 in 10.0 mi SW 23.0 mph 29.9 mph N/A   Partly Cloudy
3:53 PM 71.1 °F - 26.1 °F 19% 29.88 in 10.0 mi SSW 19.6 mph 24.2 mph N/A   Mostly Cloudy
4:53 PM 72.0 °F - 25.0 °F 17% 29.87 in 10.0 mi SSW 15.0 mph - N/A   Mostly Cloudy
5:53 PM 72.0 °F - 23.0 °F 16% 29.86 in 10.0 mi WSW 15.0 mph - N/A   Mostly Cloudy
6:53 PM 69.1 °F - 24.1 °F 18% 29.86 in 10.0 mi West 9.2 mph - N/A   Scattered Clouds
7:53 PM 63.0 °F - 25.0 °F 24% 29.86 in 10.0 mi West 4.6 mph - N/A   Mostly Cloudy
8:53 PM 55.0 °F - 30.0 °F 38% 29.87 in 10.0 mi South 8.1 mph - N/A   Scattered Clouds
9:53 PM 54.0 °F - 30.0 °F 40% 29.87 in 10.0 mi South 6.9 mph - N/A   Scattered Clouds
10:53 PM 55.0 °F - 30.9 °F 40% 29.87 in 10.0 mi South 6.9 mph - N/A   Scattered Clouds
11:53 PM 51.1 °F - 30.9 °F 46% 29.86 in 10.0 mi SSE 8.1 mph - N/A   Scattered Clouds